Location: Asheville, NC
(35.6000°N, 82.5500°W)
Time: 23:32:49
(UTC-04:00)

CUTE-I - Pass Details

Date: 11 January 2018
Orbit: 811 x 825 km, 98.7° (Epoch: 24 April)

Event Time Altitude Azimuth Distance (km) Brightness Sun altitude
Rises 05:27:26 0° 38° (NE) 3,335 ? -26.4°
Reaches altitude 10° 05:31:28 10° 69° (ENE) 2,399 ? -25.6°
Maximum altitude 05:33:28 12° 91° (E) 2,252 ? -25.2°
Drops below altitude 10° 05:35:28 10° 114° (ESE) 2,396 ? -24.8°
Sets 05:39:27 0° 144° (SE) 3,325 ? -24.0°
